sat.trackr.live / text

‹ back to catalog

HULIANWANG DIGUI-57

NORAD 65114 · 2025-168J

PAYLOAD ACTIVE UNKNOWN

§ Identity

Operator
Country
PRC
Launch date
2025-08-04
Launch site
WSC
Launch vehicle
Mass (kg)
RCS (m²)

External: N2YO · Heavens-Above · Gunter

§ Orbital elements

Epoch: 2026-05-25T03:57:19.120032Z

Period
108.33 min
Inclination
50.0027°
Eccentricity
0.0009829
Mean motion
13.29321687 rev/d
Perigee alt
1,141.9 km
Apogee alt
1,156.7 km
Semi-major
7,527.5 km
B*
9.3131e-5
RAAN
47.9136°
Arg perigee
35.4485°
Mean anomaly
324.7038°
Rev number
3,964

§ Raw data

HULIANWANG DIGUI-571 65114U 25168J   26145.16480463 -.00000081  00000+0  93131-4 0  99992 65114  50.0027  47.9136 0009829  35.4485 324.7038 13.29321687 39641

JSON: /api/v1/satellites/65114 · /tle

For live sub-satellite position, see the globe view (requires WebGL).

§ Visibility from observer

Set your observer location to see the next 7 days of passes ≥ 10°. The values pass through the URL so the page stays shareable.

No JS? Fill the form by hand. The geolocation button needs JavaScript.